Total_Precipitation_Accumulation
0.00 0.00 0.00 0.01 0.03 0.07 0.11 0.14 0.26 0.31 0.34 0.34 0.34 0.35 0.34 0.30 0.28 0.31 0.34 0.30 0.20 0.12 0.10 0.09 0.12 0.08 0.09 0.13 0.11 0.09 0.06 0.07 0.05 0.07 0.03 0.01 0.00 0.00 0.00 0.00 0.00 0.00 0.00
0.00 0.00 0.01 0.03 0.04 0.05 0.09 0.14 0.25 0.38 0.44 0.46 0.43 0.36 0.38 0.39 0.36 0.41 0.42 0.43 0.34 0.21 0.15 0.13 0.19 0.10 0.06 0.18 0.17 0.11 0.06 0.07 0.04 0.03 0.03 0.01 0.01 0.01 0.00 0.00 0.00 0.00 0.00
0.00 0.00 0.00 0.01 0.01 0.03 0.06 0.10 0.18 0.30 0.41 0.47 0.41 0.30 0.24 0.28 0.30 0.30 0.30 0.36 0.38 0.32 0.24 0.19 0.19 0.12 0.07 0.17 0.20 0.16 0.07 0.06 0.02 0.01 0.01 0.00 0.01 0.01 0.00 0.00 0.00 0.00 0.00
0.00 0.00 0.00 0.00 0.00 0.01 0.03 0.05 0.13 0.13 0.16 0.19 0.19 0.15 0.10 0.16 0.27 0.29 0.26 0.28 0.37 0.40 0.33 0.25 0.20 0.12 0.05 0.06 0.11 0.22 0.17 0.08 0.02 0.02 0.02 0.01 0.01 0.00 0.00 0.00 0.00 0.00 0.00
0.00 0.00 0.00 0.00 0.00 0.00 0.01 0.02 0.02 0.01 0.02 0.06 0.10 0.09 0.05 0.11 0.25 0.29 0.26 0.32 0.43 0.43 0.33 0.27 0.22 0.16 0.10 0.08 0.11 0.21 0.22 0.13 0.06 0.04 0.05 0.05 0.02 0.00 0.00 0.00 0.00 0.00 0.00
0.00 0.00 0.00 0.00 0.00 0.00 0.00 0.00 0.00 0.00 0.00 0.02 0.06 0.05 0.04 0.12 0.18 0.24 0.30 0.40 0.49 0.45 0.33 0.27 0.25 0.27 0.22 0.16 0.13 0.16 0.15 0.14 0.13 0.10 0.08 0.07 0.02 0.00 0.00 0.00 0.00 0.00 0.00
0.00 0.00 0.00 0.00 0.00 0.00 0.00 0.00 0.00 0.00 0.00 0.00 0.01 0.01 0.05 0.11 0.10 0.15 0.30 0.41 0.50 0.48 0.41 0.34 0.31 0.29 0.25 0.26 0.25 0.17 0.11 0.09 0.09 0.12 0.13 0.15 0.12 0.06 0.02 0.00 0.00 0.00 0.00
0.00 0.00 0.00 0.00 0.00 0.01 0.00 0.00 0.00 0.00 0.00 0.00 0.01 0.01 0.03 0.10 0.09 0.08 0.20 0.34 0.33 0.31 0.31 0.31 0.29 0.28 0.24 0.21 0.21 0.17 0.13 0.10 0.08 0.11 0.18 0.22 0.24 0.19 0.08 0.03 0.01 0.00 0.00
0.00 0.00 0.00 0.00 0.00 0.01 0.01 0.01 0.01 0.02 0.01 0.02 0.03 0.02 0.03 0.05 0.06 0.06 0.06 0.11 0.17 0.18 0.16 0.17 0.20 0.21 0.22 0.22 0.18 0.14 0.12 0.10 0.08 0.08 0.11 0.13 0.18 0.19 0.14 0.07 0.02 0.01 0.00
0.00 0.00 0.00 0.01 0.01 0.01 0.01 0.02 0.02 0.04 0.05 0.12 0.09 0.04 0.02 0.02 0.03 0.06 0.09 0.08 0.12 0.17 0.18 0.16 0.17 0.18 0.15 0.14 0.14 0.16 0.16 0.11 0.07 0.05 0.05 0.06 0.11 0.15 0.16 0.15 0.06 0.02 0.01
0.00 0.00 0.00 0.02 0.02 0.02 0.02 0.03 0.02 0.03 0.07 0.18 0.21 0.12 0.04 0.04 0.08 0.10 0.10 0.15 0.23 0.27 0.19 0.15 0.18 0.16 0.14 0.15 0.16 0.19 0.22 0.18 0.14 0.09 0.06 0.05 0.07 0.15 0.18 0.20 0.11 0.05 0.02
0.00 0.00 0.01 0.01 0.01 0.01 0.01 0.02 0.01 0.01 0.04 0.11 0.12 0.05 0.03 0.05 0.11 0.15 0.10 0.10 0.13 0.14 0.12 0.12 0.14 0.14 0.16 0.20 0.25 0.29 0.25 0.19 0.11 0.08 0.07 0.06 0.06 0.10 0.16 0.18 0.14 0.10 0.05
0.01 0.01 0.01 0.01 0.00 0.00 0.00 0.00 0.00 0.00 0.00 0.02 0.02 0.01 0.01 0.04 0.07 0.09 0.08 0.06 0.06 0.08 0.09 0.11 0.12 0.13 0.15 0.19 0.21 0.25 0.23 0.15 0.09 0.06 0.05 0.08 0.09 0.10 0.13 0.16 0.14 0.11 0.06
0.01 0.01 0.00 0.01 0.00 0.00 0.00 0.00 0.00 0.00 0.00 0.00 0.00 0.00 0.00 0.01 0.03 0.04 0.03 0.02 0.02 0.02 0.03 0.04 0.05 0.06 0.08 0.12 0.16 0.18 0.23 0.18 0.11 0.07 0.06 0.08 0.06 0.04 0.07 0.12 0.12 0.11 0.08
0.01 0.01 0.00 0.01 0.01 0.01 0.01 0.02 0.03 0.04 0.03 0.01 0.01 0.01 0.01 0.01 0.02 0.04 0.01 0.01 0.01 0.01 0.01 0.02 0.03 0.05 0.06 0.08 0.13 0.13 0.19 0.19 0.15 0.11 0.11 0.08 0.06 0.06 0.06 0.09 0.14 0.15 0.12
0.01 0.00 0.00 0.01 0.02 0.02 0.02 0.03 0.05 0.09 0.07 0.04 0.03 0.03 0.04 0.03 0.03 0.03 0.01 0.00 0.00 0.00 0.01 0.01 0.04 0.08 0.08 0.11 0.15 0.16 0.20 0.18 0.13 0.09 0.12 0.17 0.15 0.09 0.04 0.04 0.09 0.12 0.13
0.00 0.00 0.00 0.01 0.03 0.03 0.04 0.07 0.10 0.14 0.11 0.09 0.08 0.09 0.10 0.06 0.04 0.02 0.01 0.01 0.01 0.00 0.00 0.02 0.05 0.06 0.10 0.16 0.15 0.20 0.22 0.19 0.14 0.09 0.10 0.14 0.17 0.21 0.16 0.08 0.06 0.07 0.13
0.00 0.00 0.00 0.00 0.01 0.03 0.06 0.13 0.17 0.17 0.16 0.16 0.16 0.16 0.18 0.15 0.09 0.04 0.03 0.03 0.02 0.01 0.01 0.01 0.02 0.04 0.11 0.14 0.13 0.21 0.24 0.23 0.22 0.17 0.14 0.13 0.13 0.15 0.21 0.21 0.15 0.13 0.15
0.00 0.00 0.00 0.00 0.00 0.01 0.02 0.06 0.09 0.12 0.14 0.20 0.24 0.26 0.28 0.24 0.17 0.10 0.11 0.14 0.10 0.05 0.03 0.02 0.01 0.04 0.08 0.09 0.08 0.12 0.19 0.21 0.19 0.17 0.15 0.12 0.10 0.13 0.15 0.18 0.18 0.15 0.15
0.00 0.00 0.00 0.00 0.00 0.00 0.00 0.01 0.03 0.08 0.11 0.17 0.21 0.24 0.26 0.28 0.29 0.34 0.35 0.29 0.20 0.11 0.05 0.03 0.02 0.04 0.04 0.06 0.04 0.03 0.06 0.12 0.17 0.18 0.15 0.13 0.10 0.09 0.08 0.08 0.10 0.11 0.14
0.00 0.00 0.00 0.00 0.00 0.00 0.00 0.00 0.01 0.02 0.02 0.04 0.09 0.16 0.26 0.31 0.39 0.48 0.47 0.40 0.29 0.18 0.09 0.05 0.03 0.02 0.02 0.07 0.05 0.03 0.06 0.07 0.11 0.16 0.18 0.16 0.12 0.09 0.07 0.06 0.07 0.11 0.18
0.00 0.00 0.00 0.00 0.00 0.00 0.00 0.00 0.00 0.00 0.01 0.03 0.07 0.12 0.19 0.27 0.40 0.46 0.42 0.37 0.30 0.24 0.17 0.12 0.05 0.03 0.08 0.10 0.05 0.08 0.12 0.11 0.11 0.12 0.11 0.09 0.08 0.08 0.08 0.07 0.07 0.09 0.14
0.00 0.00 0.00 0.00 0.00 0.00 0.00 0.00 0.00 0.00 0.00 0.01 0.02 0.06 0.11 0.21 0.35 0.37 0.34 0.34 0.31 0.27 0.21 0.13 0.06 0.02 0.04 0.09 0.10 0.09 0.06 0.06 0.07 0.08 0.06 0.05 0.04 0.04 0.05 0.06 0.07 0.07 0.11
0.00 0.00 0.00 0.00 0.00 0.00 0.00 0.00 0.00 0.00 0.00 0.00 0.00 0.01 0.02 0.04 0.09 0.14 0.17 0.21 0.23 0.20 0.15 0.10 0.07 0.03 0.02 0.02 0.05 0.09 0.05 0.03 0.02 0.02 0.02 0.02 0.03 0.03 0.04 0.06 0.06 0.08 0.16
0.00 0.00 0.00 0.00 0.00 0.00 0.00 0.00 0.00 0.00 0.00 0.00 0.00 0.00 0.01 0.02 0.02 0.05 0.07 0.08 0.09 0.08 0.08 0.06 0.05 0.03 0.04 0.05 0.06 0.09 0.06 0.04 0.03 0.01 0.01 0.01 0.01 0.01 0.01 0.02 0.05 0.13 0.22
0.00 0.00 0.00 0.00 0.00 0.00 0.00 0.00 0.00 0.00 0.00 0.00 0.00 0.00 0.00 0.01 0.00 0.01 0.01 0.02 0.04 0.04 0.05 0.05 0.05 0.04 0.08 0.15 0.17 0.19 0.17 0.11 0.06 0.02 0.01 0.01 0.01 0.02 0.01 0.01 0.02 0.08 0.17